New Ulm, MN

11:40 AM CST on February 26, 2017 (GMT -0600)
New Ulm Municipal

Weather History for KULM - October, 2013

Change the Weather History Date:

Monday, October 21, 2013

  Actual Average Record
Temperature  
Mean Temperature 34 °F -  
Max Temperature 41 °F 59 °F 82 °F (1978)
Min Temperature 24 °F 37 °F 3 °F (2000)
Degree Days  
Heating Degree Days 32    
Moisture  
Dew Point 25 °F    
Average Humidity 72    
Maximum Humidity 93    
Minimum Humidity 49    
Precipitation  
Precipitation 0.00 in - - ()
Sea Level Pressure  
Sea Level Pressure 29.97 in    
Wind  
Wind Speed 9 mph (WNW)    
Max Wind Speed 20 mph    
Max Gust Speed 25 mph    
Visibility 10 miles    
Events      
Averages and records for this station are not official NWS values.
T = Trace of Precipitation, MM = Missing Value Source: NWS Daily Summary

Daily Weather History Graph

Daily Weather History Graph

Search for Another Location

Airport or City:

Trip Planner

Search our weather history database for the weather conditions in past years. The results will help you decide how hot, cold, wet, or windy it might be!

Date:

Astronomy

Oct. 21, 2013 Rise Set
Actual Time 7:40 AM CDT 6:23 PM CDT
Civil Twilight 7:11 AM CDT 6:52 PM CDT
Nautical Twilight 6:37 AM CDT 7:26 PM CDT
Astronomical Twilight 6:04 AM CDT 8:00 PM CDT
Moon 8:11 PM CDT (10/21) 10:21 AM CDT (10/21)
Length of Visible Light 11h 41m
Length of Day
10h 42m
Waning Gibbous, 92% of the Moon is Illuminated
Oct 21
Waning Gibbous
Oct 26
Last Quarter
Nov 3
New
Nov 9
First Quarter
Nov 17
Full

Hourly Weather History & Observations

Time (CDT) Temp. Windchill Dew Point Humidity Pressure Visibility Wind Dir Wind Speed Gust Speed Precip Events Conditions
12:13 AM 35.6 °F 26.6 °F 26.6 °F 70% 29.94 in 10.0 mi NNW 13.8 mph 23.0 mph N/A   Mostly Cloudy
12:32 AM 33.8 °F 24.8 °F 24.8 °F 70% 29.94 in 10.0 mi NW 12.7 mph 18.4 mph N/A   Overcast
12:53 AM 33.8 °F 26.4 °F 26.6 °F 75% 29.95 in 10.0 mi NW 9.2 mph - N/A   Overcast
1:13 AM 33.8 °F 26.4 °F 26.6 °F 75% 29.95 in 10.0 mi NW 9.2 mph - N/A   Overcast
1:32 AM 35.6 °F 29.2 °F 26.6 °F 70% 29.95 in 10.0 mi NW 8.1 mph - N/A   Overcast
1:53 AM 33.8 °F 26.4 °F 26.6 °F 75% 29.96 in 10.0 mi NW 9.2 mph - N/A   Overcast
2:13 AM 33.8 °F 25.3 °F 26.6 °F 75% 29.96 in 10.0 mi NW 11.5 mph 19.6 mph N/A   Overcast
2:32 AM 33.8 °F 27.0 °F 26.6 °F 75% 29.96 in 10.0 mi NW 8.1 mph - N/A   Mostly Cloudy
2:53 AM 32.0 °F 25.6 °F 24.8 °F 75% 29.97 in 10.0 mi NW 6.9 mph - N/A   Mostly Cloudy
3:13 AM 30.2 °F 24.3 °F 26.6 °F 86% 29.97 in 10.0 mi West 5.8 mph - N/A   Scattered Clouds
3:32 AM 28.4 °F 20.4 °F 26.6 °F 93% 29.98 in 10.0 mi West 8.1 mph - N/A   Clear
3:53 AM 30.2 °F 21.3 °F 28.4 °F 93% 29.98 in 10.0 mi West 10.4 mph - N/A   Mostly Cloudy
4:13 AM 30.2 °F 21.3 °F 28.4 °F 93% 29.98 in 10.0 mi WNW 10.4 mph - N/A   Overcast
4:32 AM 30.2 °F 23.4 °F 28.4 °F 93% 29.98 in 10.0 mi West 6.9 mph - N/A   Overcast
4:53 AM 30.2 °F 22.6 °F 28.4 °F 93% 29.97 in 10.0 mi WNW 8.1 mph - N/A   Mostly Cloudy
5:13 AM 30.2 °F 23.4 °F 26.6 °F 86% 29.98 in 10.0 mi WNW 6.9 mph - N/A   Mostly Cloudy
5:32 AM 30.2 °F 23.4 °F 26.6 °F 86% 29.98 in 10.0 mi West 6.9 mph - N/A   Overcast
5:53 AM 30.2 °F 22.6 °F 26.6 °F 86% 29.98 in 10.0 mi WNW 8.1 mph - N/A   Overcast
6:13 AM 30.2 °F 23.4 °F 26.6 °F 86% 29.98 in 10.0 mi WNW 6.9 mph - N/A   Overcast
6:32 AM 32.0 °F 26.4 °F 26.6 °F 80% 29.98 in 10.0 mi West 5.8 mph - N/A   Overcast
6:53 AM 30.2 °F 23.4 °F 28.4 °F 93% 29.98 in 10.0 mi West 6.9 mph - N/A   Overcast
7:13 AM 30.2 °F 23.4 °F 28.4 °F 93% 29.98 in 10.0 mi West 6.9 mph - N/A   Overcast
7:32 AM 32.0 °F 24.8 °F 26.6 °F 80% 29.99 in 10.0 mi WNW 8.1 mph - N/A   Overcast
7:53 AM 32.0 °F 26.4 °F 26.6 °F 80% 29.99 in 10.0 mi West 5.8 mph - N/A   Overcast
8:13 AM 30.2 °F 24.3 °F 28.4 °F 93% 29.99 in 10.0 mi West 5.8 mph - N/A   Overcast
8:32 AM 32.0 °F 25.6 °F 28.4 °F 87% 29.99 in 10.0 mi West 6.9 mph - N/A   Overcast
8:53 AM 33.8 °F 27.0 °F 28.4 °F 81% 30.00 in 10.0 mi West 8.1 mph - N/A   Overcast
9:13 AM 33.8 °F 26.4 °F 28.4 °F 81% 30.00 in 10.0 mi West 9.2 mph - N/A   Overcast
9:32 AM 33.8 °F 25.3 °F 26.6 °F 75% 30.00 in 10.0 mi WNW 11.5 mph - N/A   Overcast
9:53 AM 33.8 °F 25.3 °F 26.6 °F 75% 30.00 in 10.0 mi WNW 11.5 mph - N/A   Overcast
10:13 AM 33.8 °F 24.8 °F 28.4 °F 81% 30.00 in 10.0 mi WNW 12.7 mph - N/A   Mostly Cloudy
10:32 AM 35.6 °F 28.0 °F 26.6 °F 70% 29.99 in 10.0 mi WNW 10.4 mph 16.1 mph N/A   Mostly Cloudy
10:53 AM 35.6 °F 27.1 °F 26.6 °F 70% 29.99 in 10.0 mi WNW 12.7 mph 19.6 mph N/A   Mostly Cloudy
11:13 AM 35.6 °F 28.0 °F 24.8 °F 65% 29.99 in 10.0 mi WNW 10.4 mph 16.1 mph N/A   Mostly Cloudy
11:32 AM 35.6 °F 26.2 °F 24.8 °F 65% 29.99 in 10.0 mi NW 15.0 mph - N/A   Mostly Cloudy
11:53 AM 37.4 °F 27.5 °F 24.8 °F 60% 29.99 in 10.0 mi WNW 18.4 mph - N/A   Mostly Cloudy
12:13 PM 37.4 °F 27.8 °F 24.8 °F 60% 29.98 in 10.0 mi WNW 17.3 mph - N/A   Scattered Clouds
12:32 PM 37.4 °F 28.5 °F 24.8 °F 60% 29.99 in 10.0 mi West 15.0 mph 20.7 mph N/A   Mostly Cloudy
12:53 PM 37.4 °F 28.5 °F 24.8 °F 60% 29.98 in 10.0 mi WNW 15.0 mph - N/A   Mostly Cloudy
1:13 PM 37.4 °F 27.5 °F 23.0 °F 56% 29.97 in 10.0 mi NW 18.4 mph - N/A   Overcast
1:32 PM 37.4 °F 28.2 °F 24.8 °F 60% 29.97 in 10.0 mi WNW 16.1 mph 19.6 mph N/A   Mostly Cloudy
1:53 PM 37.4 °F 29.8 °F 24.8 °F 60% 29.96 in 10.0 mi NW 11.5 mph 20.7 mph N/A   Mostly Cloudy
2:13 PM 37.4 °F 28.2 °F 24.8 °F 60% 29.96 in 10.0 mi NW 16.1 mph - N/A   Mostly Cloudy
2:32 PM 37.4 °F 28.9 °F 23.0 °F 56% 29.96 in 10.0 mi WNW 13.8 mph 20.7 mph N/A   Mostly Cloudy
2:53 PM 39.2 °F 31.6 °F 23.0 °F 52% 29.95 in 10.0 mi NW 12.7 mph 19.6 mph N/A   Scattered Clouds
3:13 PM 39.2 °F 30.5 °F 23.0 °F 52% 29.95 in 10.0 mi NW 16.1 mph 19.6 mph N/A   Clear
3:32 PM 39.2 °F 29.6 °F 23.0 °F 52% 29.96 in 10.0 mi WNW 19.6 mph 25.3 mph N/A   Clear
3:53 PM 39.2 °F 30.2 °F 23.0 °F 52% 29.95 in 10.0 mi NW 17.3 mph 24.2 mph N/A   Clear
4:13 PM 39.2 °F 30.8 °F 23.0 °F 52% 29.95 in 10.0 mi WNW 15.0 mph - N/A   Clear
4:32 PM 41.0 °F 33.9 °F 23.0 °F 49% 29.95 in 10.0 mi NW 12.7 mph - N/A   Clear
4:53 PM 39.2 °F 32.0 °F 23.0 °F 52% 29.95 in 10.0 mi NW 11.5 mph - N/A   Clear
5:13 PM 39.2 °F 32.0 °F 23.0 °F 52% 29.95 in 10.0 mi WNW 11.5 mph - N/A   Clear
5:32 PM 39.2 °F 31.6 °F 23.0 °F 52% 29.95 in 10.0 mi NW 12.7 mph - N/A   Clear
5:53 PM 39.2 °F 34.2 °F 24.8 °F 56% 29.96 in 10.0 mi NW 6.9 mph - N/A   Clear
6:13 PM 37.4 °F 32.1 °F 23.0 °F 56% 29.96 in 10.0 mi NNW 6.9 mph - N/A   Clear
6:32 PM 35.6 °F 31.7 °F 23.0 °F 60% 29.96 in 10.0 mi NNW 4.6 mph - N/A   Clear
6:53 PM 35.6 °F 32.8 °F 21.2 °F 56% 29.96 in 10.0 mi NNW 3.5 mph - N/A   Clear
7:13 PM 35.6 °F 32.8 °F 23.0 °F 60% 29.96 in 10.0 mi NNW 3.5 mph - N/A   Clear
7:33 PM 33.8 °F 29.6 °F 23.0 °F 65% 29.96 in 10.0 mi NNW 4.6 mph - N/A   Clear
7:52 PM 33.8 °F - 23.0 °F 65% 29.96 in 10.0 mi Calm Calm - N/A   Clear
8:13 PM 33.8 °F - 23.0 °F 65% 29.96 in 10.0 mi Calm Calm - N/A   Clear
8:33 PM 33.8 °F - 23.0 °F 65% 29.96 in 10.0 mi Calm Calm - N/A   Clear
8:52 PM 33.8 °F - 23.0 °F 65% 29.96 in 10.0 mi Calm Calm - N/A   Clear
9:13 PM 33.8 °F - 23.0 °F 65% 29.95 in 10.0 mi Calm Calm - N/A   Clear
9:33 PM 33.8 °F - 23.0 °F 65% 29.96 in 10.0 mi Calm Calm - N/A   Clear
9:52 PM 30.2 °F - 23.0 °F 75% 29.96 in 10.0 mi Calm Calm - N/A   Scattered Clouds
10:13 PM 26.6 °F - 24.8 °F 93% 29.96 in 10.0 mi Calm Calm - N/A   Mostly Cloudy
10:32 PM 26.6 °F - 23.0 °F 86% 29.97 in 10.0 mi Calm Calm - N/A   Mostly Cloudy
10:53 PM 26.6 °F - 23.0 °F 86% 29.96 in 10.0 mi Calm Calm - N/A   Clear
11:12 PM 26.6 °F - 23.0 °F 86% 29.96 in 10.0 mi Calm Calm - N/A   Clear
11:33 PM 26.6 °F - 23.0 °F 86% 29.96 in 10.0 mi Calm Calm - N/A   Clear
11:53 PM 24.8 °F - 23.0 °F 93% 29.97 in 10.0 mi Calm Calm - N/A   Clear